FW2511 Weather Reports


time (UTC)temp
C
wind
direction
speed
KPH
gust
KPH
rain 1hr
cm
rain 24hr
cm
rain mn
cm
humidity
%
barometer
mb
20260506103021 15 171 4.8 16.1 0.00 0.00 0.00 60 1013.7
20260506101533 15 140 4.8 12.9 0.00 0.00 0.00 60 1013.6
20260506100018 15 226 3.2 16.1 0.00 0.00 0.00 59 1013.4
20260506094523 15 200 3.2 11.3 0.00 0.00 0.00 59 1013.7
20260506093021 16 192 8.0 20.9 0.00 0.00 0.00 59 1013.6
20260506091515 16 203 6.4 17.7 0.00 0.00 0.00 59 1013.6
20260506090014 16 221 4.8 16.1 0.00 0.00 0.00 58 1014.0
20260506084511 16 194 6.4 17.7 0.00 0.00 0.00 58 1014.2
20260506083010 16 244 6.4 19.3 0.00 0.00 0.00 58 1014.2
20260506081508 16 140 8.0 19.3 0.00 0.00 0.00 57 1014.6
20260506073002 16 185 3.2 16.1 0.00 0.00 0.00 56 1014.2
20260506071501 16 174 4.8 19.3 0.00 0.00 0.00 56 1014.6
20260506061554 17 164 4.8 22.5 0.00 0.00 0.00 55 1014.4
20260506044629 18 126 4.8 22.5 0.00 0.00 0.00 49 1015.1
20260506043036 18 134 6.4 20.9 0.00 0.00 0.00 48 1015.0
20260506041534 19 154 4.8 19.3 0.00 0.00 0.00 46 1015.0
20260506040032 19 109 4.8 20.9 0.00 0.00 0.00 43 1014.9
20260506034558 20 161 1.6 11.3 0.00 0.00 0.00 41 1014.7
20260506033032 20 155 3.2 12.9 0.00 0.00 0.00 40 1014.8
20260506031527 20 136 3.2 14.5 0.00 0.00 0.00 40 1014.6
20260506030024 20 216 3.2 14.5 0.00 0.00 0.00 39 1014.6
20260506024522 20 153 3.2 11.3 0.00 0.00 0.00 39 1014.6
20260506023021 20 124 1.6 8.0 0.00 0.00 0.00 39 1014.7
20260506021519 21 183 1.6 4.8 0.00 0.00 0.00 38 1014.6
20260506020018 21 142 1.6 8.0 0.00 0.00 0.00 38 1014.7
20260506014525 21 153 1.6 8.0 0.00 0.00 0.00 38 1014.8
20260506013017 21 244 1.6 8.0 0.00 0.00 0.00 38 1014.7
20260506011519 21 150 1.6 9.7 0.00 0.00 0.00 37 1014.5
20260506010019 21 169 0.0 4.8 0.00 0.00 0.00 35 1014.6
20260506004531 21 173 1.6 11.3 0.00 0.00 0.00 35 1014.4
20260506003033 22 175 1.6 4.8 0.00 0.00 0.00 33 1014.6
20260506001518 22 208 1.6 4.8 0.00 0.00 0.00 32 1014.4
20260506000016 23 210 1.6 3.2 0.00 0.00 0.00 30 1014.4
20260505234638 23 210 1.6 12.9 0.00 0.00 0.00 29 1014.3
20260505233018 23 185 3.2 16.1 0.00 0.00 0.00 28 1014.1
20260505231516 24 233 1.6 22.5 0.00 0.00 0.00 27 1014.0
20260505230013 24 246 6.4 27.4 0.00 0.00 0.00 26 1014.2
20260505224513 24 236 8.0 25.7 0.00 0.00 0.00 26 1014.3
20260505223013 24 235 11.3 25.7 0.00 0.00 0.00 27 1014.2
20260505221516 24 144 4.8 19.3 0.00 0.00 0.00 27 1014.1
20260505220022 24 207 12.9 25.7 0.00 0.00 0.00 26 1014.2
20260505214512 24 167 8.0 29.0 0.00 0.00 0.00 27 1014.4
20260505213008 24 251 14.5 32.2 0.00 0.00 0.00 27 1014.5
20260505211508 24 267 9.7 22.5 0.00 0.00 0.00 27 1014.7
20260505210009 24 175 11.3 19.3 0.00 0.00 0.00 26 1014.8
20260505204508 24 167 8.0 20.9 0.00 0.00 0.00 26 1014.7
20260505203008 24 223 1.6 22.5 0.00 0.00 0.00 28 1014.8
20260505201509 25 270 12.9 32.2 0.00 0.00 0.00 26 1015.1
20260505200004 25 134 8.0 24.1 0.00 0.00 0.00 27 1015.3
20260505194505 24 254 16.1 32.2 0.00 0.00 0.00 26 1015.4
20260505193002 24 134 9.7 32.2 0.00 0.00 0.00 25 1015.5
20260505191602 25 252 4.8 20.9 0.00 0.00 0.00 24 1015.8
20260505190004 25 124 8.0 30.6 0.00 0.00 0.00 25 1016.0
20260505184502 24 265 11.3 27.4 0.00 0.00 0.00 26 1016.3
20260505183059 23 180 9.7 32.2 0.00 0.00 0.00 27 1016.6
20260505181601 23 246 12.9 27.4 0.00 0.00 0.00 27 1016.7
20260505180058 23 193 6.4 27.4 0.00 0.00 0.00 28 1016.9
20260505174608 23 259 8.0 29.0 0.00 0.00 0.00 29 1017.1
20260505173050 23 254 12.9 25.7 0.00 0.00 0.00 28 1017.1
20260505171548 23 158 9.7 17.7 0.00 0.00 0.00 27 1017.2
20260505170115 22 155 8.0 17.7 0.00 0.00 0.00 29 1017.1
20260505164549 23 196 6.4 16.1 0.00 0.00 0.00 30 1017.1
20260505163044 22 155 1.6 29.0 0.00 0.00 0.00 38 1017.2
20260505161537 21 178 8.0 22.5 0.00 0.00 0.00 38 1017.6
20260505153046 21 207 8.0 19.3 0.00 0.00 0.00 43 1018.2
20260505151534 20 232 8.0 22.5 0.00 0.00 0.00 45 1018.1
20260505124522 15 251 8.0 22.5 0.00 0.00 0.00 58 1017.7
20260505123023 15 239 8.0 20.9 0.00 0.00 0.00 59 1017.6
20260505121520 14 207 6.4 14.5 0.00 0.00 0.00 60 1017.5
20260505120026 13 146 4.8 14.5 0.00 0.00 0.00 60 1017.4
20260505114516 12 254 1.6 11.3 0.00 0.00 0.00 61 1017.2
20260505113020 12 229 0.0 6.4 0.00 0.00 0.00 62 1017.1
20260505111518 11 217 0.0 3.2 0.00 0.00 0.00 63 1017.0